owner,sensor,date,latitude,longitude,vertical_datum,wind_speed,wind_to_direction,wind_speed_of_gust,qcFlag 
DISL,ioos:station:DISL:MBLA:1,2015-08-01T00:00:00Z,30.4367,-88.0117,14.2,9.96,68.27,-9999.0,'1111122,1111122,1111122' 
DISL,ioos:station:DISL:MBLA:1,2015-08-01T00:30:00Z,30.4367,-88.0117,14.2,7.51,52.72,-9999.0,'1111122,1111122,1111122' 
DISL,ioos:station:DISL:MBLA:1,2015-08-01T01:00:00Z,30.4367,-88.0117,14.2,5.57,56.02,-9999.0,'1111122,1111122,1111122' 
DISL,ioos:station:DISL:MBLA:1,2015-08-01T01:30:00Z,30.4367,-88.0117,14.2,4.66,23.26,-9999.0,'1111122,1111122,1111122' 
DISL,ioos:station:DISL:MBLA:1,2015-08-01T02:00:00Z,30.4367,-88.0117,14.2,4.7,18.15,-9999.0,'1111122,1111122,1111122' 
DISL,ioos:station:DISL:MBLA:1,2015-08-01T02:30:00Z,30.4367,-88.0117,14.2,3.79,43.95,-9999.0,'1111122,1111122,1111122' 
DISL,ioos:station:DISL:MBLA:1,2015-08-01T03:00:00Z,30.4367,-88.0117,14.2,3.79,33.92,-9999.0,'1111122,1111122,1111122' 
DISL,ioos:station:DISL:MBLA:1,2015-08-01T03:30:00Z,30.4367,-88.0117,14.2,4.82,38.27,-9999.0,'1111122,1111122,1111122' 
DISL,ioos:station:DISL:MBLA:1,2015-08-01T04:00:00Z,30.4367,-88.0117,14.2,3.76,29.6,-9999.0,'1111122,1111122,1111122' 
DISL,ioos:station:DISL:MBLA:1,2015-08-01T04:30:00Z,30.4367,-88.0117,14.2,5.65,18.29,-9999.0,'1111122,1111122,1111122' 
DISL,ioos:station:DISL:MBLA:1,2015-08-01T05:00:00Z,30.4367,-88.0117,14.2,6.69,12.99,-9999.0,'1111122,1111122,1111122' 
DISL,ioos:station:DISL:MBLA:1,2015-08-01T05:30:00Z,30.4367,-88.0117,14.2,7.44,6.515,-9999.0,'1111122,1111122,1111122' 
DISL,ioos:station:DISL:MBLA:1,2015-08-01T06:00:00Z,30.4367,-88.0117,14.2,8.17,6.237,-9999.0,'1111122,1111122,1111122' 
DISL,ioos:station:DISL:MBLA:1,2015-08-01T06:30:00Z,30.4367,-88.0117,14.2,8.35,7.153,-9999.0,'1111122,1111122,1111122' 
DISL,ioos:station:DISL:MBLA:1,2015-08-01T07:00:00Z,30.4367,-88.0117,14.2,9.57,18.3,-9999.0,'1111122,1111122,1111122' 
DISL,ioos:station:DISL:MBLA:1,2015-08-01T07:30:00Z,30.4367,-88.0117,14.2,8.53,7.423,-9999.0,'1111122,1111122,1111122' 
DISL,ioos:station:DISL:MBLA:1,2015-08-01T08:00:00Z,30.4367,-88.0117,14.2,7.65,7.199,-9999.0,'1111122,1111122,1111122' 
DISL,ioos:station:DISL:MBLA:1,2015-08-01T08:30:00Z,30.4367,-88.0117,14.2,7.34,4.818,-9999.0,'1111122,1111122,1111122' 
DISL,ioos:station:DISL:MBLA:1,2015-08-01T09:00:00Z,30.4367,-88.0117,14.2,7.45,10.16,-9999.0,'1111122,1111122,1111122' 
DISL,ioos:station:DISL:MBLA:1,2015-08-01T09:30:00Z,30.4367,-88.0117,14.2,7.81,13.2,-9999.0,'1111122,1111122,1111122' 
DISL,ioos:station:DISL:MBLA:1,2015-08-01T10:00:00Z,30.4367,-88.0117,14.2,8.17,15.14,-9999.0,'1111122,1111122,1111122' 
DISL,ioos:station:DISL:MBLA:1,2015-08-01T10:30:00Z,30.4367,-88.0117,14.2,7.87,19.99,-9999.0,'1111122,1111122,1111122' 
DISL,ioos:station:DISL:MBLA:1,2015-08-01T11:00:00Z,30.4367,-88.0117,14.2,5.83,37.06,-9999.0,'1111122,1111122,1111122' 
DISL,ioos:station:DISL:MBLA:1,2015-08-01T11:30:00Z,30.4367,-88.0117,14.2,6.26,27.64,-9999.0,'1111122,1111122,1111122' 
DISL,ioos:station:DISL:MBLA:1,2015-08-01T12:00:00Z,30.4367,-88.0117,14.2,6.64,15.02,-9999.0,'1111122,1111122,1111122' 
DISL,ioos:station:DISL:MBLA:1,2015-08-01T12:30:00Z,30.4367,-88.0117,14.2,7.19,21.74,-9999.0,'1111122,1111122,1111122' 
DISL,ioos:station:DISL:MBLA:1,2015-08-01T13:00:00Z,30.4367,-88.0117,14.2,9.51,14.58,-9999.0,'1111122,1111122,1111122' 
DISL,ioos:station:DISL:MBLA:1,2015-08-01T13:30:00Z,30.4367,-88.0117,14.2,10.25,15.54,-9999.0,'1111122,1111122,1111122' 
DISL,ioos:station:DISL:MBLA:1,2015-08-01T14:00:00Z,30.4367,-88.0117,14.2,8.59,18.58,-9999.0,'1111122,1111122,1111122' 
DISL,ioos:station:DISL:MBLA:1,2015-08-01T14:30:00Z,30.4367,-88.0117,14.2,7.17,8.97,-9999.0,'1111122,1111122,1111122' 
DISL,ioos:station:DISL:MBLA:1,2015-08-01T15:00:00Z,30.4367,-88.0117,14.2,6.25,0.259,-9999.0,'1111122,1111122,1111122' 
DISL,ioos:station:DISL:MBLA:1,2015-08-01T15:30:00Z,30.4367,-88.0117,14.2,6.81,0.586,-9999.0,'1111122,1111122,1111122' 
DISL,ioos:station:DISL:MBLA:1,2015-08-01T16:00:00Z,30.4367,-88.0117,14.2,7.15,357.8,-9999.0,'1111122,1111122,1111122' 
DISL,ioos:station:DISL:MBLA:1,2015-08-01T16:30:00Z,30.4367,-88.0117,14.2,5.83,358.9,-9999.0,'1111122,1111122,1111122' 
DISL,ioos:station:DISL:MBLA:1,2015-08-01T17:00:00Z,30.4367,-88.0117,14.2,5.8,352.8,-9999.0,'1111122,1111122,1111122' 
DISL,ioos:station:DISL:MBLA:1,2015-08-01T17:30:00Z,30.4367,-88.0117,14.2,5.24,347.2,-9999.0,'1111122,1111122,1111122' 
DISL,ioos:station:DISL:MBLA:1,2015-08-01T18:00:00Z,30.4367,-88.0117,14.2,4.78,349.2,-9999.0,'1111122,1111122,1111122' 
DISL,ioos:station:DISL:MBLA:1,2015-08-01T18:30:00Z,30.4367,-88.0117,14.2,4.18,343.0,-9999.0,'1111122,1111122,1111122' 
DISL,ioos:station:DISL:MBLA:1,2015-08-01T19:00:00Z,30.4367,-88.0117,14.2,5.32,321.5,-9999.0,'1111122,1111122,1111122' 
DISL,ioos:station:DISL:MBLA:1,2015-08-01T19:30:00Z,30.4367,-88.0117,14.2,4.58,308.7,-9999.0,'1111122,1111122,1111122' 
DISL,ioos:station:DISL:MBLA:1,2015-08-01T20:00:00Z,30.4367,-88.0117,14.2,4.14,315.4,-9999.0,'1111122,1111122,1111122' 
DISL,ioos:station:DISL:MBLA:1,2015-08-01T20:30:00Z,30.4367,-88.0117,14.2,2.42,318.6,-9999.0,'1111122,1111122,1111122' 
DISL,ioos:station:DISL:MBLA:1,2015-08-01T21:00:00Z,30.4367,-88.0117,14.2,2.77,359.2,-9999.0,'1111122,1111122,1111122' 
DISL,ioos:station:DISL:MBLA:1,2015-08-01T21:30:00Z,30.4367,-88.0117,14.2,0.18,7.454,-9999.0,'1111122,1111122,1111122' 
DISL,ioos:station:DISL:MBLA:1,2015-08-01T22:00:00Z,30.4367,-88.0117,14.2,4.13,199.7,-9999.0,'1111122,1111122,1111122' 
DISL,ioos:station:DISL:MBLA:1,2015-08-01T22:30:00Z,30.4367,-88.0117,14.2,3.5,196.6,-9999.0,'1111122,1111122,1111122' 
DISL,ioos:station:DISL:MBLA:1,2015-08-01T23:00:00Z,30.4367,-88.0117,14.2,3.09,243.3,-9999.0,'1111122,1111122,1111122' 
DISL,ioos:station:DISL:MBLA:1,2015-08-01T23:30:00Z,30.4367,-88.0117,14.2,0.82,294.0,-9999.0,'1111122,1111122,1111122' 
DISL,ioos:station:DISL:MBLA:1,2015-08-02T00:00:00Z,30.4367,-88.0117,14.2,4.81,359.8,-9999.0,'1111122,1111122,1111122' 
DISL,ioos:station:DISL:MBLA:1,2015-08-02T00:30:00Z,30.4367,-88.0117,14.2,5.5,353.4,-9999.0,'1111122,1111122,1111122' 
DISL,ioos:station:DISL:MBLA:1,2015-08-02T01:00:00Z,30.4367,-88.0117,14.2,5.07,315.0,-9999.0,'1111122,1111122,1111122' 
DISL,ioos:station:DISL:MBLA:1,2015-08-02T01:30:00Z,30.4367,-88.0117,14.2,4.09,273.0,-9999.0,'1111122,1111122,1111122' 
DISL,ioos:station:DISL:MBLA:1,2015-08-02T02:00:00Z,30.4367,-88.0117,14.2,3.18,327.3,-9999.0,'1111122,1111122,1111122' 
DISL,ioos:station:DISL:MBLA:1,2015-08-02T02:30:00Z,30.4367,-88.0117,14.2,4.53,345.4,-9999.0,'1111122,1111122,1111122' 
DISL,ioos:station:DISL:MBLA:1,2015-08-02T03:00:00Z,30.4367,-88.0117,14.2,4.11,355.3,-9999.0,'1111122,1111122,1111122' 
DISL,ioos:station:DISL:MBLA:1,2015-08-02T03:30:00Z,30.4367,-88.0117,14.2,6.0,0.801,-9999.0,'1111122,1111122,1111122' 
DISL,ioos:station:DISL:MBLA:1,2015-08-02T04:00:00Z,30.4367,-88.0117,14.2,6.01,354.1,-9999.0,'1111122,1111122,1111122' 
DISL,ioos:station:DISL:MBLA:1,2015-08-02T04:30:00Z,30.4367,-88.0117,14.2,3.7,345.1,-9999.0,'1111122,1111122,1111122' 
DISL,ioos:station:DISL:MBLA:1,2015-08-02T05:00:00Z,30.4367,-88.0117,14.2,4.53,352.2,-9999.0,'1111122,1111122,1111122' 
DISL,ioos:station:DISL:MBLA:1,2015-08-02T05:30:00Z,30.4367,-88.0117,14.2,4.89,1.042,-9999.0,'1111122,1111122,1111122' 
DISL,ioos:station:DISL:MBLA:1,2015-08-02T06:00:00Z,30.4367,-88.0117,14.2,4.89,356.7,-9999.0,'1111122,1111122,1111122' 
DISL,ioos:station:DISL:MBLA:1,2015-08-02T06:30:00Z,30.4367,-88.0117,14.2,4.97,352.9,-9999.0,'1111122,1111122,1111122' 
DISL,ioos:station:DISL:MBLA:1,2015-08-02T07:00:00Z,30.4367,-88.0117,14.2,5.44,12.11,-9999.0,'1111122,1111122,1111122' 
DISL,ioos:station:DISL:MBLA:1,2015-08-02T07:30:00Z,30.4367,-88.0117,14.2,4.68,357.5,-9999.0,'1111122,1111122,1111122' 
DISL,ioos:station:DISL:MBLA:1,2015-08-02T08:00:00Z,30.4367,-88.0117,14.2,5.18,356.7,-9999.0,'1111122,1111122,1111122' 
DISL,ioos:station:DISL:MBLA:1,2015-08-02T08:30:00Z,30.4367,-88.0117,14.2,5.11,359.2,-9999.0,'1111122,1111122,1111122' 
DISL,ioos:station:DISL:MBLA:1,2015-08-02T09:00:00Z,30.4367,-88.0117,14.2,5.39,1.197,-9999.0,'1111122,1111122,1111122' 
DISL,ioos:station:DISL:MBLA:1,2015-08-02T09:30:00Z,30.4367,-88.0117,14.2,5.65,13.39,-9999.0,'1111122,1111122,1111122' 
DISL,ioos:station:DISL:MBLA:1,2015-08-02T10:00:00Z,30.4367,-88.0117,14.2,5.33,16.78,-9999.0,'1111122,1111122,1111122' 
DISL,ioos:station:DISL:MBLA:1,2015-08-02T10:30:00Z,30.4367,-88.0117,14.2,4.08,23.93,-9999.0,'1111122,1111122,1111122' 
DISL,ioos:station:DISL:MBLA:1,2015-08-02T11:00:00Z,30.4367,-88.0117,14.2,3.61,7.05,-9999.0,'1111122,1111122,1111122' 
DISL,ioos:station:DISL:MBLA:1,2015-08-02T11:30:00Z,30.4367,-88.0117,14.2,5.62,354.1,-9999.0,'1111122,1111122,1111122' 
DISL,ioos:station:DISL:MBLA:1,2015-08-02T12:00:00Z,30.4367,-88.0117,14.2,6.72,4.561,-9999.0,'1111122,1111122,1111122' 
DISL,ioos:station:DISL:MBLA:1,2015-08-02T12:30:00Z,30.4367,-88.0117,14.2,5.03,28.01,-9999.0,'1111122,1111122,1111122' 
DISL,ioos:station:DISL:MBLA:1,2015-08-02T13:00:00Z,30.4367,-88.0117,14.2,3.74,35.86,-9999.0,'1111122,1111122,1111122' 
DISL,ioos:station:DISL:MBLA:1,2015-08-02T13:30:00Z,30.4367,-88.0117,14.2,4.0,20.55,-9999.0,'1111122,1111122,1111122' 
DISL,ioos:station:DISL:MBLA:1,2015-08-02T14:00:00Z,30.4367,-88.0117,14.2,4.2,4.455,-9999.0,'1111122,1111122,1111122' 
DISL,ioos:station:DISL:MBLA:1,2015-08-02T14:30:00Z,30.4367,-88.0117,14.2,4.49,4.779,-9999.0,'1111122,1111122,1111122' 
DISL,ioos:station:DISL:MBLA:1,2015-08-02T15:00:00Z,30.4367,-88.0117,14.2,4.88,358.0,-9999.0,'1111122,1111122,1111122' 
DISL,ioos:station:DISL:MBLA:1,2015-08-02T15:30:00Z,30.4367,-88.0117,14.2,5.17,0.511,-9999.0,'1111122,1111122,1111122' 
DISL,ioos:station:DISL:MBLA:1,2015-08-02T16:00:00Z,30.4367,-88.0117,14.2,4.24,359.2,-9999.0,'1111122,1111122,1111122' 
DISL,ioos:station:DISL:MBLA:1,2015-08-02T16:30:00Z,30.4367,-88.0117,14.2,3.66,351.1,-9999.0,'1111122,1111122,1111122' 
DISL,ioos:station:DISL:MBLA:1,2015-08-02T17:00:00Z,30.4367,-88.0117,14.2,2.97,352.2,-9999.0,'1111122,1111122,1111122' 
DISL,ioos:station:DISL:MBLA:1,2015-08-02T17:30:00Z,30.4367,-88.0117,14.2,3.1,339.7,-9999.0,'1111122,1111122,1111122' 
DISL,ioos:station:DISL:MBLA:1,2015-08-02T18:00:00Z,30.4367,-88.0117,14.2,2.92,333.9,-9999.0,'1111122,1111122,1111122' 
DISL,ioos:station:DISL:MBLA:1,2015-08-02T18:30:00Z,30.4367,-88.0117,14.2,2.7,306.0,-9999.0,'1111122,1111122,1111122' 
DISL,ioos:station:DISL:MBLA:1,2015-08-02T19:00:00Z,30.4367,-88.0117,14.2,2.1,298.6,-9999.0,'1111122,1111122,1111122' 
DISL,ioos:station:DISL:MBLA:1,2015-08-02T19:30:00Z,30.4367,-88.0117,14.2,1.6,249.4,-9999.0,'1111122,1111122,1111122' 
DISL,ioos:station:DISL:MBLA:1,2015-08-02T20:00:00Z,30.4367,-88.0117,14.2,2.56,230.0,-9999.0,'1111122,1111122,1111122' 
DISL,ioos:station:DISL:MBLA:1,2015-08-02T20:30:00Z,30.4367,-88.0117,14.2,3.88,199.5,-9999.0,'1111122,1111122,1111122' 
DISL,ioos:station:DISL:MBLA:1,2015-08-02T21:00:00Z,30.4367,-88.0117,14.2,4.31,207.2,-9999.0,'1111122,1111122,1111122' 
DISL,ioos:station:DISL:MBLA:1,2015-08-02T21:30:00Z,30.4367,-88.0117,14.2,5.47,197.4,-9999.0,'1111122,1111122,1111122' 
DISL,ioos:station:DISL:MBLA:1,2015-08-02T22:00:00Z,30.4367,-88.0117,14.2,5.33,212.9,-9999.0,'1111122,1111122,1111122' 
DISL,ioos:station:DISL:MBLA:1,2015-08-02T22:30:00Z,30.4367,-88.0117,14.2,4.46,214.8,-9999.0,'1111122,1111122,1111122' 
DISL,ioos:station:DISL:MBLA:1,2015-08-02T23:00:00Z,30.4367,-88.0117,14.2,5.42,212.2,-9999.0,'1111122,1111122,1111122' 
DISL,ioos:station:DISL:MBLA:1,2015-08-02T23:30:00Z,30.4367,-88.0117,14.2,5.9,216.0,-9999.0,'1111122,1111122,1111122' 
DISL,ioos:station:DISL:MBLA:1,2015-08-03T00:00:00Z,30.4367,-88.0117,14.2,5.97,232.8,-9999.0,'1111122,1111122,1111122' 
DISL,ioos:station:DISL:MBLA:1,2015-08-03T00:30:00Z,30.4367,-88.0117,14.2,7.12,230.1,-9999.0,'1111122,1111122,1111122' 
DISL,ioos:station:DISL:MBLA:1,2015-08-03T01:00:00Z,30.4367,-88.0117,14.2,7.23,231.5,-9999.0,'1111122,1111122,1111122' 
DISL,ioos:station:DISL:MBLA:1,2015-08-03T01:30:00Z,30.4367,-88.0117,14.2,6.71,237.4,-9999.0,'1111122,1111122,1111122' 
DISL,ioos:station:DISL:MBLA:1,2015-08-03T02:00:00Z,30.4367,-88.0117,14.2,5.68,231.5,-9999.0,'1111122,1111122,1111122' 
DISL,ioos:station:DISL:MBLA:1,2015-08-03T02:30:00Z,30.4367,-88.0117,14.2,6.31,237.7,-9999.0,'1111122,1111122,1111122' 
DISL,ioos:station:DISL:MBLA:1,2015-08-03T03:00:00Z,30.4367,-88.0117,14.2,5.76,241.9,-9999.0,'1111122,1111122,1111122' 
DISL,ioos:station:DISL:MBLA:1,2015-08-03T03:30:00Z,30.4367,-88.0117,14.2,5.25,237.7,-9999.0,'1111122,1111122,1111122' 
DISL,ioos:station:DISL:MBLA:1,2015-08-03T04:00:00Z,30.4367,-88.0117,14.2,4.25,252.8,-9999.0,'1111122,1111122,1111122' 
DISL,ioos:station:DISL:MBLA:1,2015-08-03T04:30:00Z,30.4367,-88.0117,14.2,3.52,267.2,-9999.0,'1111122,1111122,1111122' 
DISL,ioos:station:DISL:MBLA:1,2015-08-03T05:00:00Z,30.4367,-88.0117,14.2,3.28,265.8,-9999.0,'1111122,1111122,1111122' 
DISL,ioos:station:DISL:MBLA:1,2015-08-03T05:30:00Z,30.4367,-88.0117,14.2,4.64,257.2,-9999.0,'1111122,1111122,1111122' 
DISL,ioos:station:DISL:MBLA:1,2015-08-03T06:00:00Z,30.4367,-88.0117,14.2,5.5,274.0,-9999.0,'1111122,1111122,1111122' 
DISL,ioos:station:DISL:MBLA:1,2015-08-03T06:30:00Z,30.4367,-88.0117,14.2,5.09,279.8,-9999.0,'1111122,1111122,1111122' 
DISL,ioos:station:DISL:MBLA:1,2015-08-03T07:00:00Z,30.4367,-88.0117,14.2,4.9,277.6,-9999.0,'1111122,1111122,1111122' 
DISL,ioos:station:DISL:MBLA:1,2015-08-03T07:30:00Z,30.4367,-88.0117,14.2,5.08,274.9,-9999.0,'1111122,1111122,1111122' 
DISL,ioos:station:DISL:MBLA:1,2015-08-03T08:00:00Z,30.4367,-88.0117,14.2,5.83,274.8,-9999.0,'1111122,1111122,1111122' 
DISL,ioos:station:DISL:MBLA:1,2015-08-03T08:30:00Z,30.4367,-88.0117,14.2,6.14,285.3,-9999.0,'1111122,1111122,1111122' 
DISL,ioos:station:DISL:MBLA:1,2015-08-03T09:00:00Z,30.4367,-88.0117,14.2,6.23,296.3,-9999.0,'1111122,1111122,1111122' 
DISL,ioos:station:DISL:MBLA:1,2015-08-03T09:30:00Z,30.4367,-88.0117,14.2,6.63,303.4,-9999.0,'1111122,1111122,1111122' 
DISL,ioos:station:DISL:MBLA:1,2015-08-03T10:00:00Z,30.4367,-88.0117,14.2,6.89,301.0,-9999.0,'1111122,1111122,1111122' 
DISL,ioos:station:DISL:MBLA:1,2015-08-03T10:30:00Z,30.4367,-88.0117,14.2,6.08,295.5,-9999.0,'1111122,1111122,1111122' 
DISL,ioos:station:DISL:MBLA:1,2015-08-03T11:00:00Z,30.4367,-88.0117,14.2,5.11,301.3,-9999.0,'1111122,1111122,1111122' 
DISL,ioos:station:DISL:MBLA:1,2015-08-03T11:30:00Z,30.4367,-88.0117,14.2,4.55,318.8,-9999.0,'1111122,1111122,1111122' 
DISL,ioos:station:DISL:MBLA:1,2015-08-03T12:00:00Z,30.4367,-88.0117,14.2,4.21,336.8,-9999.0,'1111122,1111122,1111122' 
DISL,ioos:station:DISL:MBLA:1,2015-08-03T12:30:00Z,30.4367,-88.0117,14.2,5.21,345.2,-9999.0,'1111122,1111122,1111122' 
DISL,ioos:station:DISL:MBLA:1,2015-08-03T13:00:00Z,30.4367,-88.0117,14.2,6.45,348.0,-9999.0,'1111122,1111122,1111122' 
DISL,ioos:station:DISL:MBLA:1,2015-08-03T13:30:00Z,30.4367,-88.0117,14.2,4.37,8.04,-9999.0,'1111122,1111122,1111122' 
DISL,ioos:station:DISL:MBLA:1,2015-08-03T14:00:00Z,30.4367,-88.0117,14.2,4.54,357.4,-9999.0,'1111122,1111122,1111122' 
DISL,ioos:station:DISL:MBLA:1,2015-08-03T14:30:00Z,30.4367,-88.0117,14.2,4.12,11.79,-9999.0,'1111122,1111122,1111122' 
DISL,ioos:station:DISL:MBLA:1,2015-08-03T15:00:00Z,30.4367,-88.0117,14.2,3.87,4.989,-9999.0,'1111122,1111122,1111122' 
DISL,ioos:station:DISL:MBLA:1,2015-08-03T15:30:00Z,30.4367,-88.0117,14.2,3.18,7.344,-9999.0,'1111122,1111122,1111122' 
DISL,ioos:station:DISL:MBLA:1,2015-08-03T16:00:00Z,30.4367,-88.0117,14.2,3.19,1.489,-9999.0,'1111122,1111122,1111122' 
DISL,ioos:station:DISL:MBLA:1,2015-08-03T16:30:00Z,30.4367,-88.0117,14.2,3.1,349.0,-9999.0,'1111122,1111122,1111122' 
DISL,ioos:station:DISL:MBLA:1,2015-08-03T17:00:00Z,30.4367,-88.0117,14.2,2.2,346.0,-9999.0,'1111122,1111122,1111122' 
DISL,ioos:station:DISL:MBLA:1,2015-08-03T17:30:00Z,30.4367,-88.0117,14.2,1.32,325.6,-9999.0,'1111122,1111122,1111122' 
DISL,ioos:station:DISL:MBLA:1,2015-08-03T18:00:00Z,30.4367,-88.0117,14.2,0.81,306.6,-9999.0,'1111122,1111122,1111122' 
DISL,ioos:station:DISL:MBLA:1,2015-08-03T18:30:00Z,30.4367,-88.0117,14.2,1.8,197.4,-9999.0,'1111122,1111122,1111122' 
DISL,ioos:station:DISL:MBLA:1,2015-08-03T19:00:00Z,30.4367,-88.0117,14.2,2.84,189.6,-9999.0,'1111122,1111122,1111122' 
DISL,ioos:station:DISL:MBLA:1,2015-08-03T19:30:00Z,30.4367,-88.0117,14.2,9.05,190.1,-9999.0,'1111122,1111122,1111122' 
DISL,ioos:station:DISL:MBLA:1,2015-08-03T20:00:00Z,30.4367,-88.0117,14.2,8.99,205.7,-9999.0,'1111122,1111122,1111122' 
DISL,ioos:station:DISL:MBLA:1,2015-08-03T20:30:00Z,30.4367,-88.0117,14.2,10.04,217.1,-9999.0,'1111122,1111122,1111122' 
DISL,ioos:station:DISL:MBLA:1,2015-08-03T21:00:00Z,30.4367,-88.0117,14.2,10.38,226.0,-9999.0,'1111122,1111122,1111122' 
DISL,ioos:station:DISL:MBLA:1,2015-08-03T21:30:00Z,30.4367,-88.0117,14.2,10.1,219.2,-9999.0,'1111122,1111122,1111122' 
DISL,ioos:station:DISL:MBLA:1,2015-08-03T22:00:00Z,30.4367,-88.0117,14.2,9.0,220.2,-9999.0,'1111122,1111122,1111122' 
DISL,ioos:station:DISL:MBLA:1,2015-08-03T22:30:00Z,30.4367,-88.0117,14.2,8.98,240.5,-9999.0,'1111122,1111122,1111122' 
DISL,ioos:station:DISL:MBLA:1,2015-08-03T23:00:00Z,30.4367,-88.0117,14.2,6.63,230.6,-9999.0,'1111122,1111122,1111122' 
DISL,ioos:station:DISL:MBLA:1,2015-08-03T23:30:00Z,30.4367,-88.0117,14.2,6.85,240.5,-9999.0,'1111122,1111122,1111122' 
DISL,ioos:station:DISL:MBLA:1,2015-08-04T00:00:00Z,30.4367,-88.0117,14.2,6.78,238.3,-9999.0,'1111122,1111122,1111122' 
DISL,ioos:station:DISL:MBLA:1,2015-08-04T00:30:00Z,30.4367,-88.0117,14.2,6.81,236.8,-9999.0,'1111122,1111122,1111122' 
DISL,ioos:station:DISL:MBLA:1,2015-08-04T01:00:00Z,30.4367,-88.0117,14.2,5.76,241.0,-9999.0,'1111122,1111122,1111122' 
DISL,ioos:station:DISL:MBLA:1,2015-08-04T01:30:00Z,30.4367,-88.0117,14.2,4.63,237.6,-9999.0,'1111122,1111122,1111122' 
DISL,ioos:station:DISL:MBLA:1,2015-08-04T02:00:00Z,30.4367,-88.0117,14.2,4.88,247.2,-9999.0,'1111122,1111122,1111122' 
DISL,ioos:station:DISL:MBLA:1,2015-08-04T02:30:00Z,30.4367,-88.0117,14.2,4.52,246.7,-9999.0,'1111122,1111122,1111122' 
DISL,ioos:station:DISL:MBLA:1,2015-08-04T03:00:00Z,30.4367,-88.0117,14.2,4.31,272.0,-9999.0,'1111122,1111122,1111122' 
DISL,ioos:station:DISL:MBLA:1,2015-08-04T03:30:00Z,30.4367,-88.0117,14.2,3.99,282.2,-9999.0,'1111122,1111122,1111122' 
DISL,ioos:station:DISL:MBLA:1,2015-08-04T04:00:00Z,30.4367,-88.0117,14.2,3.38,269.1,-9999.0,'1111122,1111122,1111122' 
DISL,ioos:station:DISL:MBLA:1,2015-08-04T04:30:00Z,30.4367,-88.0117,14.2,3.01,254.7,-9999.0,'1111122,1111122,1111122' 
DISL,ioos:station:DISL:MBLA:1,2015-08-04T05:00:00Z,30.4367,-88.0117,14.2,2.92,236.1,-9999.0,'1111122,1111122,1111122' 
DISL,ioos:station:DISL:MBLA:1,2015-08-04T05:30:00Z,30.4367,-88.0117,14.2,3.29,227.3,-9999.0,'1111122,1111122,1111122' 
DISL,ioos:station:DISL:MBLA:1,2015-08-04T06:00:00Z,30.4367,-88.0117,14.2,4.2,234.3,-9999.0,'1111122,1111122,1111122' 
DISL,ioos:station:DISL:MBLA:1,2015-08-04T06:30:00Z,30.4367,-88.0117,14.2,2.66,265.6,-9999.0,'1111122,1111122,1111122' 
DISL,ioos:station:DISL:MBLA:1,2015-08-04T07:00:00Z,30.4367,-88.0117,14.2,2.37,281.3,-9999.0,'1111122,1111122,1111122' 
DISL,ioos:station:DISL:MBLA:1,2015-08-04T07:30:00Z,30.4367,-88.0117,14.2,2.82,275.1,-9999.0,'1111122,1111122,1111122' 
DISL,ioos:station:DISL:MBLA:1,2015-08-04T08:00:00Z,30.4367,-88.0117,14.2,3.91,280.6,-9999.0,'1111122,1111122,1111122' 
DISL,ioos:station:DISL:MBLA:1,2015-08-04T08:30:00Z,30.4367,-88.0117,14.2,5.55,296.0,-9999.0,'1111122,1111122,1111122' 
DISL,ioos:station:DISL:MBLA:1,2015-08-04T09:00:00Z,30.4367,-88.0117,14.2,4.9,289.1,-9999.0,'1111122,1111122,1111122' 
DISL,ioos:station:DISL:MBLA:1,2015-08-04T09:30:00Z,30.4367,-88.0117,14.2,5.61,293.0,-9999.0,'1111122,1111122,1111122' 
DISL,ioos:station:DISL:MBLA:1,2015-08-04T10:00:00Z,30.4367,-88.0117,14.2,5.22,304.5,-9999.0,'1111122,1111122,1111122' 
DISL,ioos:station:DISL:MBLA:1,2015-08-04T10:30:00Z,30.4367,-88.0117,14.2,5.22,300.9,-9999.0,'1111122,1111122,1111122' 
DISL,ioos:station:DISL:MBLA:1,2015-08-04T11:00:00Z,30.4367,-88.0117,14.2,5.14,295.3,-9999.0,'1111122,1111122,1111122' 
DISL,ioos:station:DISL:MBLA:1,2015-08-04T11:30:00Z,30.4367,-88.0117,14.2,3.85,302.9,-9999.0,'1111122,1111122,1111122' 
DISL,ioos:station:DISL:MBLA:1,2015-08-04T12:00:00Z,30.4367,-88.0117,14.2,3.82,308.4,-9999.0,'1111122,1111122,1111122' 
DISL,ioos:station:DISL:MBLA:1,2015-08-04T12:30:00Z,30.4367,-88.0117,14.2,2.92,298.9,-9999.0,'1111122,1111122,1111122' 
DISL,ioos:station:DISL:MBLA:1,2015-08-04T13:00:00Z,30.4367,-88.0117,14.2,3.12,303.7,-9999.0,'1111122,1111122,1111122' 
DISL,ioos:station:DISL:MBLA:1,2015-08-04T13:30:00Z,30.4367,-88.0117,14.2,2.97,315.6,-9999.0,'1111122,1111122,1111122' 
DISL,ioos:station:DISL:MBLA:1,2015-08-04T14:00:00Z,30.4367,-88.0117,14.2,2.87,322.4,-9999.0,'1111122,1111122,1111122' 
DISL,ioos:station:DISL:MBLA:1,2015-08-04T14:30:00Z,30.4367,-88.0117,14.2,2.28,317.4,-9999.0,'1111122,1111122,1111122' 
DISL,ioos:station:DISL:MBLA:1,2015-08-04T15:00:00Z,30.4367,-88.0117,14.2,1.34,312.6,-9999.0,'1111122,1111122,1111122' 
DISL,ioos:station:DISL:MBLA:1,2015-08-04T15:30:00Z,30.4367,-88.0117,14.2,0.13,350.2,-9999.0,'1111122,1111122,1111122' 
DISL,ioos:station:DISL:MBLA:1,2015-08-04T16:00:00Z,30.4367,-88.0117,14.2,0.96,157.3,-9999.0,'1111122,1111122,1111122' 
DISL,ioos:station:DISL:MBLA:1,2015-08-04T16:30:00Z,30.4367,-88.0117,14.2,1.29,146.5,-9999.0,'1111122,1111122,1111122' 
DISL,ioos:station:DISL:MBLA:1,2015-08-04T17:00:00Z,30.4367,-88.0117,14.2,2.5,172.9,-9999.0,'1111122,1111122,1111122' 
DISL,ioos:station:DISL:MBLA:1,2015-08-04T17:30:00Z,30.4367,-88.0117,14.2,3.65,180.0,-9999.0,'1111122,1111122,1111122' 
DISL,ioos:station:DISL:MBLA:1,2015-08-04T18:00:00Z,30.4367,-88.0117,14.2,6.32,189.0,-9999.0,'1111122,1111122,1111122' 
DISL,ioos:station:DISL:MBLA:1,2015-08-04T18:30:00Z,30.4367,-88.0117,14.2,5.67,192.6,-9999.0,'1111122,1111122,1111122' 
DISL,ioos:station:DISL:MBLA:1,2015-08-04T19:00:00Z,30.4367,-88.0117,14.2,7.99,218.4,-9999.0,'1111122,1111122,1111122' 
DISL,ioos:station:DISL:MBLA:1,2015-08-04T19:30:00Z,30.4367,-88.0117,14.2,9.37,213.7,-9999.0,'1111122,1111122,1111122' 
DISL,ioos:station:DISL:MBLA:1,2015-08-04T20:00:00Z,30.4367,-88.0117,14.2,8.31,219.0,-9999.0,'1111122,1111122,1111122' 
DISL,ioos:station:DISL:MBLA:1,2015-08-04T20:30:00Z,30.4367,-88.0117,14.2,8.41,215.9,-9999.0,'1111122,1111122,1111122' 
DISL,ioos:station:DISL:MBLA:1,2015-08-04T21:00:00Z,30.4367,-88.0117,14.2,8.48,212.2,-9999.0,'1111122,1111122,1111122' 
DISL,ioos:station:DISL:MBLA:1,2015-08-04T21:30:00Z,30.4367,-88.0117,14.2,7.7,203.5,-9999.0,'1111122,1111122,1111122' 
DISL,ioos:station:DISL:MBLA:1,2015-08-04T22:00:00Z,30.4367,-88.0117,14.2,7.07,207.8,-9999.0,'1111122,1111122,1111122' 
DISL,ioos:station:DISL:MBLA:1,2015-08-04T22:30:00Z,30.4367,-88.0117,14.2,8.52,213.3,-9999.0,'1111122,1111122,1111122' 
DISL,ioos:station:DISL:MBLA:1,2015-08-04T23:00:00Z,30.4367,-88.0117,14.2,8.65,218.9,-9999.0,'1111122,1111122,1111122' 
DISL,ioos:station:DISL:MBLA:1,2015-08-04T23:30:00Z,30.4367,-88.0117,14.2,8.46,225.9,-9999.0,'1111122,1111122,1111122' 
DISL,ioos:station:DISL:MBLA:1,2015-08-05T00:00:00Z,30.4367,-88.0117,14.2,7.82,223.6,-9999.0,'1111122,1111122,1111122' 
DISL,ioos:station:DISL:MBLA:1,2015-08-05T00:30:00Z,30.4367,-88.0117,14.2,6.38,211.9,-9999.0,'1111122,1111122,1111122' 
DISL,ioos:station:DISL:MBLA:1,2015-08-05T01:00:00Z,30.4367,-88.0117,14.2,6.24,198.2,-9999.0,'1111122,1111122,1111122' 
DISL,ioos:station:DISL:MBLA:1,2015-08-05T01:30:00Z,30.4367,-88.0117,14.2,6.05,193.9,-9999.0,'1111122,1111122,1111122' 
DISL,ioos:station:DISL:MBLA:1,2015-08-05T02:00:00Z,30.4367,-88.0117,14.2,7.11,202.5,-9999.0,'1111122,1111122,1111122' 
DISL,ioos:station:DISL:MBLA:1,2015-08-05T02:30:00Z,30.4367,-88.0117,14.2,7.39,201.8,-9999.0,'1111122,1111122,1111122' 
DISL,ioos:station:DISL:MBLA:1,2015-08-05T03:00:00Z,30.4367,-88.0117,14.2,7.93,201.8,-9999.0,'1111122,1111122,1111122' 
DISL,ioos:station:DISL:MBLA:1,2015-08-05T03:30:00Z,30.4367,-88.0117,14.2,6.93,200.8,-9999.0,'1111122,1111122,1111122' 